Location: Bosdarros
(43.2167°N, 0.3667°W)
Time: 14:33:08
(UTC+00:00)

Cosmos 2227 Rocket - Pass Details

Date: 22 April 2021
Orbit: 840 x 844 km, 71.0° (Epoch: 12 May)

Event Time Altitude Azimuth Distance (km) Brightness Sun altitude
Rises 20:32:17 0° 200° (SSW) 3,386 5.2 -16.9°
Reaches altitude 10° 20:34:42 10° 200° (SSW) 2,455 4.4 -17.3°
Maximum altitude 20:40:21 83° 114° (ESE) 855 2.1 -18.1°
Drops below altitude 10° 20:46:02 10° 26° (NNE) 2,469 4.8 -18.9°
Sets 20:48:29 0° 26° (NNE) 3,407 5.5 -19.2°
